| time (UTC) | temp C | wind direction | speed KPH | gust KPH | rain 1hr cm | rain 24hr cm | rain mn cm | humidity % | barometer mb |
| 20260906090832 | 23 | 18 | 0.0 | 4.8 | 0.00 | 0.00 | 0.00 | 94 | 1012.7 |
| 20260906085833 | 23 | 28 | 0.0 | 8.0 | 0.00 | 0.00 | 0.00 | 94 | 1012.7 |
| 20260906084832 | 23 | 13 | 0.0 | 11.3 | 0.00 | 0.00 | 0.00 | 94 | 1012.6 |
| 20260906083832 | 23 | 13 | 0.0 | 0.0 | 0.00 | 0.00 | 0.00 | 94 | 1012.6 |
| 20260906082831 | 23 | 13 | 0.0 | 0.0 | 0.00 | 0.00 | 0.00 | 93 | 1012.6 |
| 20260906081831 | 23 | 18 | 0.0 | 0.0 | 0.00 | 0.00 | 0.00 | 93 | 1012.6 |
| 20260906080831 | 23 | 18 | 0.0 | 0.0 | 0.00 | 0.00 | 0.00 | 93 | 1012.4 |
| 20260906074831 | 23 | 18 | 0.0 | 0.0 | 0.00 | 0.00 | 0.00 | 92 | 1012.4 |
| 20260906072829 | 23 | 18 | 0.0 | 0.0 | 0.00 | 0.00 | 0.00 | 90 | 1012.4 |
| 20260906071829 | 23 | 18 | 0.0 | 0.0 | 0.00 | 0.00 | 0.00 | 89 | 1012.6 |
| 20260906065828 | 24 | 18 | 0.0 | 0.0 | 0.00 | 0.00 | 0.00 | 87 | 1012.8 |
| 20260906064828 | 24 | 18 | 0.0 | 0.0 | 0.00 | 0.00 | 0.00 | 86 | 1012.9 |
| 20260906063828 | 24 | 18 | 0.0 | 0.0 | 0.00 | 0.00 | 0.00 | 85 | 1012.9 |
| 20260906062828 | 25 | 18 | 0.0 | 0.0 | 0.00 | 0.00 | 0.00 | 84 | 1012.9 |
| 20260906061827 | 25 | 18 | 0.0 | 0.0 | 0.00 | 0.00 | 0.00 | 84 | 1012.9 |
| 20260906060827 | 24 | 116 | 0.0 | 0.0 | 0.00 | 0.00 | 0.00 | 84 | 1012.9 |
| 20260906055826 | 25 | 116 | 0.0 | 0.0 | 0.00 | 0.00 | 0.00 | 83 | 1012.9 |
| 20260906053826 | 25 | 116 | 0.0 | 0.0 | 0.00 | 0.00 | 0.00 | 84 | 1012.8 |
| 20260906052827 | 25 | 116 | 0.0 | 0.0 | 0.00 | 0.00 | 0.00 | 84 | 1012.8 |
| 20260906051825 | 25 | 116 | 0.0 | 0.0 | 0.00 | 0.00 | 0.00 | 84 | 1012.7 |
| 20260906045826 | 25 | 116 | 0.0 | 0.0 | 0.00 | 0.00 | 0.00 | 85 | 1012.3 |
| 20260906044824 | 25 | 116 | 0.0 | 0.0 | 0.00 | 0.00 | 0.00 | 84 | 1012.3 |
| 20260906042824 | 25 | 18 | 0.0 | 0.0 | 0.00 | 0.00 | 0.00 | 85 | 1012.2 |
| 20260906041823 | 26 | 18 | 0.0 | 0.0 | 0.00 | 0.00 | 0.00 | 86 | 1011.9 |
| 20260906040823 | 26 | 18 | 0.0 | 0.0 | 0.00 | 0.00 | 0.00 | 86 | 1011.9 |
| 20260906035822 | 26 | 18 | 0.0 | 0.0 | 0.00 | 0.00 | 0.00 | 85 | 1011.9 |
| 20260906033822 | 26 | 18 | 0.0 | 0.0 | 0.00 | 0.00 | 0.00 | 84 | 1011.7 |
| 20260906032823 | 26 | 18 | 0.0 | 0.0 | 0.00 | 0.00 | 0.00 | 84 | 1011.7 |
| 20260906031822 | 26 | 43 | 0.0 | 0.0 | 0.00 | 0.00 | 0.00 | 83 | 1011.7 |
| 20260906030821 | 26 | 28 | 0.0 | 0.0 | 0.00 | 0.00 | 0.00 | 83 | 1011.7 |
| 20260906025851 | 26 | 27 | 0.0 | 0.0 | 0.00 | 0.00 | 0.00 | 82 | 1011.7 |
| 20260906024851 | 26 | 27 | 0.0 | 0.0 | 0.00 | 0.00 | 0.00 | 81 | 1011.7 |
| 20260906023820 | 26 | 27 | 0.0 | 0.0 | 0.00 | 0.00 | 0.00 | 81 | 1011.4 |
| 20260906021850 | 26 | 18 | 0.0 | 0.0 | 0.00 | 0.00 | 0.00 | 86 | 1011.1 |
| 20260906020819 | 26 | 18 | 0.0 | 0.0 | 0.00 | 0.00 | 0.00 | 84 | 1011.2 |
| 20260906015820 | 26 | 18 | 0.0 | 0.0 | 0.00 | 0.00 | 0.00 | 84 | 1011.2 |
| 20260906014819 | 27 | 18 | 0.0 | 0.0 | 0.00 | 0.00 | 0.00 | 84 | 1010.9 |
| 20260906013818 | 27 | 18 | 0.0 | 0.0 | 0.00 | 0.00 | 0.00 | 83 | 1010.6 |
| 20260906012848 | 27 | 18 | 0.0 | 0.0 | 0.00 | 0.00 | 0.00 | 81 | 1010.6 |
| 20260906011849 | 27 | 18 | 0.0 | 0.0 | 0.00 | 0.00 | 0.00 | 80 | 1010.5 |
| 20260906010847 | 27 | 22 | 0.0 | 0.0 | 0.00 | 0.00 | 0.00 | 78 | 1010.5 |
| 20260906004847 | 28 | 22 | 0.0 | 0.0 | 0.00 | 0.00 | 0.00 | 78 | 1010.1 |
| 20260906003817 | 29 | 22 | 0.0 | 0.0 | 0.00 | 0.00 | 0.00 | 76 | 1009.9 |
| 20260906002846 | 30 | 22 | 0.0 | 0.0 | 0.00 | 0.00 | 0.00 | 73 | 1010.0 |
| 20260906001846 | 30 | 22 | 0.0 | 0.0 | 0.00 | 0.00 | 0.00 | 69 | 1010.1 |
| 20260906000846 | 31 | 22 | 0.0 | 0.0 | 0.00 | 0.00 | 0.00 | 65 | 1010.2 |
| 20260905235845 | 31 | 22 | 0.0 | 0.0 | 0.00 | 0.00 | 0.00 | 58 | 1010.2 |
| 20260905233844 | 32 | 22 | 0.0 | 0.0 | 0.00 | 0.00 | 0.00 | 56 | 1010.7 |
| 20260905232844 | 33 | 8 | 0.0 | 0.0 | 0.00 | 0.00 | 0.00 | 52 | 1010.7 |
| 20260905225843 | 33 | 348 | 0.0 | 0.0 | 0.00 | 0.00 | 0.00 | 47 | 1010.3 |
| 20260905224843 | 33 | 356 | 0.0 | 0.0 | 0.00 | 0.00 | 0.00 | 47 | 1010.1 |
| 20260905223843 | 34 | 342 | 0.0 | 0.0 | 0.00 | 0.00 | 0.00 | 47 | 1010.1 |
| 20260905222843 | 35 | 322 | 0.0 | 0.0 | 0.00 | 0.00 | 0.00 | 46 | 1010.2 |
| 20260905221842 | 35 | 324 | 0.0 | 6.4 | 0.00 | 0.00 | 0.00 | 43 | 1010.2 |
| 20260905220842 | 35 | 334 | 0.0 | 6.4 | 0.00 | 0.00 | 0.00 | 43 | 1010.1 |
| 20260905215842 | 35 | 332 | 0.0 | 0.0 | 0.00 | 0.00 | 0.00 | 44 | 1010.1 |
| 20260905214841 | 35 | 336 | 0.0 | 8.0 | 0.00 | 0.00 | 0.00 | 46 | 1010.2 |
| 20260905213841 | 35 | 338 | 0.0 | 9.7 | 0.00 | 0.00 | 0.00 | 44 | 1010.2 |
| 20260905212842 | 35 | 349 | 0.0 | 0.0 | 0.00 | 0.00 | 0.00 | 45 | 1010.2 |
| 20260905211841 | 35 | 8 | 0.0 | 4.8 | 0.00 | 0.00 | 0.00 | 44 | 1010.3 |
| 20260905210840 | 35 | 24 | 0.0 | 14.5 | 0.00 | 0.00 | 0.00 | 43 | 1010.7 |
| 20260905205840 | 35 | 307 | 0.0 | 12.9 | 0.00 | 0.00 | 0.00 | 49 | 1010.7 |
| 20260905204839 | 35 | 274 | 0.0 | 11.3 | 0.00 | 0.00 | 0.00 | 45 | 1010.8 |
| 20260905203839 | 36 | 282 | 0.0 | 12.9 | 0.00 | 0.00 | 0.00 | 42 | 1010.8 |
| 20260905202840 | 35 | 282 | 0.0 | 9.7 | 0.00 | 0.00 | 0.00 | 44 | 1010.8 |
| 20260905201838 | 35 | 315 | 0.0 | 6.4 | 0.00 | 0.00 | 0.00 | 43 | 1011.0 |
| 20260905195838 | 35 | 344 | 0.0 | 11.3 | 0.00 | 0.00 | 0.00 | 42 | 1011.1 |
| 20260905194838 | 35 | 295 | 0.0 | 8.0 | 0.00 | 0.00 | 0.00 | 43 | 1011.3 |
| 20260905192837 | 35 | 320 | 0.0 | 16.1 | 0.00 | 0.00 | 0.00 | 42 | 1011.5 |
| 20260905191836 | 35 | 294 | 0.0 | 0.0 | 0.00 | 0.00 | 0.00 | 42 | 1011.7 |
| 20260905190836 | 35 | 225 | 0.0 | 0.0 | 0.00 | 0.00 | 0.00 | 40 | 1011.9 |
| 20260905185836 | 35 | 211 | 0.0 | 0.0 | 0.00 | 0.00 | 0.00 | 43 | 1011.9 |
| 20260905184836 | 35 | 218 | 0.0 | 0.0 | 0.00 | 0.00 | 0.00 | 39 | 1012.2 |
| 20260905183835 | 35 | 227 | 0.0 | 0.0 | 0.00 | 0.00 | 0.00 | 42 | 1012.4 |
| 20260905182835 | 34 | 213 | 0.0 | 1.6 | 0.00 | 0.00 | 0.00 | 42 | 1012.3 |
| 20260905181835 | 34 | 276 | 0.0 | 6.4 | 0.00 | 0.00 | 0.00 | 42 | 1012.7 |
| 20260905180835 | 34 | 194 | 0.0 | 1.6 | 0.00 | 0.00 | 0.00 | 41 | 1012.8 |
| 20260905175834 | 34 | 201 | 0.0 | 3.2 | 0.00 | 0.00 | 0.00 | 41 | 1012.8 |
| 20260905174834 | 33 | 225 | 0.0 | 3.2 | 0.00 | 0.00 | 0.00 | 42 | 1012.8 |
| 20260905173834 | 33 | 210 | 0.0 | 9.7 | 0.00 | 0.00 | 0.00 | 43 | 1013.1 |
| 20260905172833 | 33 | 228 | 0.0 | 0.0 | 0.00 | 0.00 | 0.00 | 43 | 1013.1 |
| 20260905171834 | 33 | 223 | 0.0 | 0.0 | 0.00 | 0.00 | 0.00 | 45 | 1013.3 |
| 20260905170833 | 33 | 116 | 0.0 | 1.6 | 0.00 | 0.00 | 0.00 | 44 | 1013.3 |
| 20260905165833 | 32 | 170 | 0.0 | 9.7 | 0.00 | 0.00 | 0.00 | 43 | 1013.3 |
| 20260905164833 | 32 | 202 | 0.0 | 0.0 | 0.00 | 0.00 | 0.00 | 49 | 1013.5 |
| 20260905163832 | 32 | 141 | 0.0 | 0.0 | 0.00 | 0.00 | 0.00 | 47 | 1013.8 |
| 20260905161831 | 31 | 122 | 0.0 | 8.0 | 0.00 | 0.00 | 0.00 | 50 | 1013.8 |
| 20260905160831 | 31 | 228 | 0.0 | 16.1 | 0.00 | 0.00 | 0.00 | 48 | 1014.0 |
| 20260905155831 | 30 | 186 | 9.7 | 11.3 | 0.00 | 0.00 | 0.00 | 49 | 1014.0 |
| 20260905154830 | 30 | 215 | 0.0 | 16.1 | 0.00 | 0.00 | 0.00 | 53 | 1014.0 |
| 20260905153831 | 30 | 176 | 0.0 | 9.7 | 0.00 | 0.00 | 0.00 | 49 | 1013.9 |
| 20260905152830 | 30 | 206 | 0.0 | 11.3 | 0.00 | 0.00 | 0.00 | 50 | 1013.9 |
| 20260905150830 | 29 | 148 | 0.0 | 14.5 | 0.00 | 0.00 | 0.00 | 53 | 1014.2 |
| 20260905145829 | 29 | 154 | 0.0 | 4.8 | 0.00 | 0.00 | 0.00 | 54 | 1014.2 |
| 20260905144829 | 28 | 197 | 0.0 | 6.4 | 0.00 | 0.00 | 0.00 | 55 | 1014.4 |
| 20260905143828 | 27 | 192 | 0.0 | 0.0 | 0.00 | 0.00 | 0.00 | 60 | 1014.3 |
| 20260905142828 | 27 | 192 | 0.0 | 9.7 | 0.00 | 0.00 | 0.00 | 59 | 1014.3 |
| 20260905140827 | 26 | 193 | 0.0 | 9.7 | 0.00 | 0.00 | 0.00 | 64 | 1014.7 |
| 20260905135827 | 26 | 192 | 0.0 | 3.2 | 0.00 | 0.00 | 0.00 | 65 | 1014.7 |
| 20260905134827 | 25 | 118 | 0.0 | 6.4 | 0.00 | 0.00 | 0.00 | 67 | 1014.7 |
| 20260905133826 | 25 | 191 | 0.0 | 6.4 | 0.00 | 0.00 | 0.00 | 70 | 1015.1 |
| 20260905132826 | 25 | 166 | 0.0 | 6.4 | 0.00 | 0.00 | 0.00 | 70 | 1015.1 |
| 20260905131826 | 25 | 172 | 0.0 | 9.7 | 0.00 | 0.00 | 0.00 | 71 | 1015.2 |
| 20260905130825 | 24 | 175 | 1.6 | 1.6 | 0.00 | 0.00 | 0.00 | 74 | 1015.2 |
| 20260905125825 | 24 | 133 | 0.0 | 4.8 | 0.00 | 0.00 | 0.00 | 76 | 1015.2 |
| 20260905124825 | 24 | 176 | 1.6 | 6.4 | 0.00 | 0.00 | 0.00 | 77 | 1015.3 |
| 20260905123824 | 24 | 139 | 0.0 | 6.4 | 0.00 | 0.00 | 0.00 | 80 | 1015.3 |
| 20260905122824 | 24 | 265 | 0.0 | 6.4 | 0.00 | 0.00 | 0.00 | 82 | 1015.3 |
| 20260905121824 | 24 | 270 | 0.0 | 1.6 | 0.00 | 0.00 | 0.00 | 87 | 1015.0 |
| 20260905115824 | 23 | 72 | 0.0 | 14.5 | 0.00 | 0.00 | 0.00 | 91 | 1014.8 |
| 20260905114823 | 23 | 184 | 0.0 | 0.0 | 0.00 | 0.00 | 0.00 | 92 | 1013.6 |
| 20260905113823 | 23 | 184 | 0.0 | 0.0 | 0.00 | 0.00 | 0.00 | 92 | 1013.3 |
| 20260905112822 | 23 | 184 | 0.0 | 0.0 | 0.00 | 0.00 | 0.00 | 91 | 1013.3 |
| 20260905111822 | 23 | 177 | 0.0 | 0.0 | 0.00 | 0.00 | 0.00 | 91 | 1013.2 |
| 20260905110822 | 24 | 170 | 0.0 | 0.0 | 0.00 | 0.00 | 0.00 | 90 | 1012.9 |
| 20260905105822 | 24 | 167 | 0.0 | 1.6 | 0.00 | 0.00 | 0.00 | 91 | 1012.9 |
| 20260905102821 | 23 | 311 | 0.0 | 0.0 | 0.00 | 0.00 | 0.00 | 95 | 1013.4 |
| 20260905101820 | 23 | 271 | 0.0 | 0.0 | 0.00 | 0.00 | 0.00 | 95 | 1013.2 |
| 20260905100821 | 23 | 271 | 0.0 | 0.0 | 0.00 | 0.00 | 0.00 | 95 | 1013.0 |
| 20260905095849 | 23 | 271 | 0.0 | 0.0 | 0.00 | 0.00 | 0.00 | 95 | 1013.0 |
| 20260905094819 | 23 | 271 | 0.0 | 0.0 | 0.00 | 0.00 | 0.00 | 95 | 1012.9 |
| 20260905093819 | 23 | 271 | 0.0 | 0.0 | 0.00 | 0.00 | 0.00 | 94 | 1012.9 |
| 20260905092819 | 23 | 271 | 0.0 | 0.0 | 0.00 | 0.00 | 0.00 | 94 | 1012.9 |
| 20260905091820 | 23 | 271 | 0.0 | 0.0 | 0.00 | 0.00 | 0.00 | 94 | 1012.5 |